Charlottesville, VA

4:30 AM EST on December 14, 2017 (GMT -0500)
Charlottesville-Albemarle

Weather History for KCHO - October, 2012

Change the Weather History Date:

Tuesday, October 23, 2012

  Actual Average Record
Temperature  
Mean Temperature 64 °F 54 °F  
Max Temperature 82 °F 66 °F 88 °F (1947)
Min Temperature 46 °F 42 °F 28 °F (2008)
Degree Days  
Heating Degree Days 1 11  
Month to date heating degree days 167 190  
Since 1 July heating degree days 206 248  
Cooling Degree Days 0 0  
Month to date cooling degree days 17 12  
Year to date cooling degree days 1601 1033  
Growing Degree Days 14 (Base 50)    
Moisture  
Dew Point 50 °F    
Average Humidity 65    
Maximum Humidity 93    
Minimum Humidity 36    
Precipitation  
Precipitation 0.00 in 0.09 in 0.74 in (2017)
Month to date precipitation 2.73 2.37  
Year to date precipitation 31.61 34.99  
Sea Level Pressure  
Sea Level Pressure 30.09 in    
Wind  
Wind Speed 5 mph (SSW)    
Max Wind Speed 13 mph    
Max Gust Speed 15 mph    
Visibility 10 miles    
Events      
T = Trace of Precipitation, MM = Missing Value Source: NWS Daily Summary

Daily Weather History Graph

Daily Weather History Graph

Search for Another Location

Airport or City:

Trip Planner

Search our weather history database for the weather conditions in past years. The results will help you decide how hot, cold, wet, or windy it might be!

Date:

Astronomy

Oct. 23, 2012 Rise Set
Actual Time 7:30 AM EDT 6:24 PM EDT
Civil Twilight 7:03 AM EDT 6:51 PM EDT
Nautical Twilight 6:33 AM EDT 7:22 PM EDT
Astronomical Twilight 6:02 AM EDT 7:52 PM EDT
Moon 3:02 PM EDT (10/23) 1:26 AM EDT (10/23)
Length of Visible Light 11h 47m
Length of Day
10h 53m
Waxing Gibbous, 66% of the Moon is Illuminated
Oct 23
Waxing Gibbous
Oct 29
Full
Nov 6
Last Quarter
Nov 13
New
Nov 20
First Quarter

Hourly Weather History & Observations

Time (EDT) Temp. Heat Index Dew Point Humidity Pressure Visibility Wind Dir Wind Speed Gust Speed Precip Events Conditions
12:53 AM 50.0 °F - 45.0 °F 83% 30.14 in 10.0 mi Calm Calm - N/A   Clear
2:53 AM 50.0 °F - 46.0 °F 86% 30.13 in 10.0 mi WSW 4.6 mph - N/A   Clear
3:53 AM 50.0 °F - 46.0 °F 86% 30.12 in 10.0 mi Calm Calm - N/A   Clear
4:53 AM 48.0 °F - 46.0 °F 93% 30.11 in 10.0 mi Calm Calm - N/A   Clear
5:53 AM 48.0 °F - 45.0 °F 89% 30.11 in 10.0 mi Calm Calm - N/A   Clear
6:53 AM 46.9 °F - 45.0 °F 93% 30.12 in 10.0 mi Calm Calm - N/A   Clear
7:53 AM 48.0 °F - 45.0 °F 89% 30.13 in 10.0 mi Calm Calm - N/A   Clear
8:53 AM 53.1 °F - 48.0 °F 83% 30.14 in 10.0 mi Calm Calm - N/A   Clear
9:53 AM 61.0 °F - 51.1 °F 70% 30.14 in 10.0 mi Calm Calm - N/A   Clear
11:53 AM 73.9 °F - 51.1 °F 45% 30.10 in 10.0 mi SSW 5.8 mph - N/A   Clear
2:53 PM 81.0 °F 80.4 °F 53.1 °F 38% 30.04 in 10.0 mi South 8.1 mph - N/A   Clear
3:53 PM 81.0 °F - 52.0 °F 36% 30.03 in 10.0 mi South 10.4 mph - N/A   Clear
4:53 PM 78.1 °F - 53.1 °F 42% 30.03 in 10.0 mi South 6.9 mph - N/A   Clear
5:53 PM 75.0 °F - 52.0 °F 44% 30.03 in 10.0 mi South 6.9 mph - N/A   Clear
6:53 PM 71.1 °F - 51.1 °F 49% 30.04 in 10.0 mi SSE 3.5 mph - N/A   Clear
7:53 PM 68.0 °F - 53.1 °F 59% 30.06 in 10.0 mi South 8.1 mph - N/A   Clear
8:53 PM 66.0 °F - 53.1 °F 63% 30.06 in 10.0 mi SW 9.2 mph - N/A   Clear
9:53 PM 68.0 °F - 52.0 °F 56% 30.07 in 10.0 mi SSW 5.8 mph - N/A   Clear
10:53 PM 64.9 °F - 52.0 °F 63% 30.07 in 10.0 mi SW 3.5 mph - N/A   Clear
11:53 PM 63.0 °F - 52.0 °F 67% 30.06 in 10.0 mi South 4.6 mph - N/A   Clear